sat.trackr.live / text

‹ back to catalog

STARLINK-34652

NORAD 64772 · 2025-147T

PAYLOAD ACTIVE UNKNOWN

§ Identity

Operator
Country
US
Launch date
2025-07-08
Launch site
AFETR
Launch vehicle
Mass (kg)
RCS (m²)

Purposes: comms

External: N2YO · Heavens-Above · Gunter

§ Orbital elements

Epoch: 2026-05-24T23:46:18.652224Z

Period
93.85 min
Inclination
53.1566°
Eccentricity
0.0001207
Mean motion
15.34401171 rev/d
Perigee alt
461.9 km
Apogee alt
463.5 km
Semi-major
6,840.8 km
B*
6.4901e-4
RAAN
247.6365°
Arg perigee
81.1562°
Mean anomaly
278.9577°
Rev number
5,044

§ Raw data

STARLINK-346521 64772U 25147T   26144.99049366  .00021616  00000+0  64901-3 0  99962 64772  53.1566 247.6365 0001207  81.1562 278.9577 15.34401171 50445

JSON: /api/v1/satellites/64772 · /tle

For live sub-satellite position, see the globe view (requires WebGL).

§ Visibility from observer

Set your observer location to see the next 7 days of passes ≥ 10°. The values pass through the URL so the page stays shareable.

No JS? Fill the form by hand. The geolocation button needs JavaScript.